User: anonymous   Login
Location: CNYAC Observatory
(43.2150°N, 74.9500°W)
Time: 20:18:50
(UTC-04:00)
Language:

Meteor 1-22 Rocket - Orbit

View from above orbital plane
View from above orbital plane
View from above satellite
View from above satellite

Ground track
Ground track

The orbit data is extracted from the following two-line orbital elements,

1  8294U 75087B   16205.90272050 -.00000003 +00000-0 -78038-5 0  9995
2  8294 081.2204 342.4934 0105944 247.6003 111.3916 14.08595546098383
Epoch (UTC): 23 July 2016 21:39:55
Eccentricity: 0.0105944
inclination: 81.2204°
perigee height: 787 km
apogee height: 941 km
right ascension of ascending node: 342.4934°
argument of perigee: 247.6003°
revolutions per day: 14.08595546
mean anomaly at epoch: 111.3916°
orbit number at epoch: 9838

The dashed part of the orbit path shows where the satellite is in the earth's shadow,  

DLR